If you wish to contribute or participate in the discussions about articles you are invited to join SKYbrary as a registered user

 Actions

Kyiv/Zhuliany International Airport

From SKYbrary Wiki

UKKK
Airport
ICAO: UKKK
Summary
Name Kyiv/Zhuliany International Airport
Region Europe
Territory Ukraine UA.gif
Location Zhuliany
Serving
Coordinates 50° 24' 19.62" N, 30° 26' 46.68" E
Runways
Designator Length Width Surface ROPS
8/26 1800 m5,905.512 ft
49 m160.761 ft
CON no/no


METAR
Observation UKKK 070230Z 26002MPS 7000 NSC M01/M05 Q1035 R26/CLRD70 TEMPO 2000 FU
Station Kyiv
Date/Time 07 April 2020 02:30:00
Wind direction 260°
Wind speed kts
Lowest cloud amount nil significant cloud
Temperature
Dew point
Humidity 74%
QNH 1035 hPa
Weather condition n/a

Kyiv/Zhuliany International Airport (IATA: IEV) is one of the two passenger airports of the Ukrainian capital Kiev.